This demonstration page uses our WeatherBlox Daily Observations layout. Learn more.

Left ArrowRight Arrow

Hourly Observations for May 8, 2022

Temp ( °F °C ) Dew Point ( °F °C ) Humidity (%) Winds ( mph kmh ) Pressure ( in mb ) Visibility ( mi km ) Precip ( " mm )
12:56 am 00:56 Cloudy 64 17.8 44 6.6 48 48 SE 21 33 29.62 1003 10 16 0.00 0.00
1:56 am 01:56 Mostly Cloudy 63 17.3 44 6.5 49 49 SE 18 30 29.64 1004 10 16 0.00 0.00
2:56 am 02:56 Mostly Cloudy 63 17.3 43 6.2 48 48 SE 22 35 29.62 1003 10 16 0.00 0.00
3:56 am 03:56 Mostly Cloudy 63 17 43 6.2 49 49 SSE 15 24 29.65 1004 10 16 0.00 0.00
4:34 am 04:34 Mostly Cloudy with Thunderstorms 63 17 43 6 49 49 Calm 29.64 1004 6 10 0.00 0.00
4:56 am 04:56 Cloudy with Thunderstorms 59 15.1 46 7.9 62 62 SE 18 30 29.61 1003 6 10 0.06 1.52
5:51 am 05:51 Mostly Cloudy 59 15 46 8 63 63 SSE 20 31 29.58 1002 10 16 0.00 0.00
5:56 am 05:56 Mostly Cloudy 59 14.8 47 8.3 65 65 SSE 21 33 29.58 1002 10 16 0.01 0.25
6:56 am 06:56 Mostly Cloudy 58 14.7 47 8.2 65 65 SE 20 31 29.58 1002 10 16 0.00 0.00
7:56 am 07:56 Mostly Cloudy 59 14.8 48 8.9 68 68 SE 9 15 29.65 1004 10 16 0.00 0.00
8:56 am 08:56 Cloudy 58 14.2 50 9.8 75 75 ESE 6 9 29.64 1004 10 16 0.00 0.00
9:56 am 09:56 undefined 58 14.6 50 10.2 75 75 NE 6 9 29.65 1004 10 16 0.00 0.00
10:56 am 10:56 Cloudy 59 14.8 51 10.6 76 76 ENE 7 11 29.63 1004 10 16 0.00 0.00
11:56 am 11:56 Cloudy 60 15.4 53 11.4 77 77 E 6 9 29.63 1004 10 16 0.00 0.00
12:56 pm 12:56 undefined 61 16.3 54 12.3 77 77 ENE 7 11 29.62 1003 10 16 0.00 0.00
1:56 pm 13:56 Cloudy 65 18.4 57 13.7 74 74 ESE 8 13 29.60 1002 10 16 0.00 0.00
2:56 pm 14:56 Cloudy 68 19.8 58 14.4 71 71 SSE 17 28 29.59 1002 10 16 0.00 0.00
3:56 pm 15:56 undefined 68 19.8 58 14.6 72 72 SSE 8 13 29.60 1002 10 16 0.00 0.00
4:22 pm 16:22 Cloudy with Drizzle 68 20 59 15 73 73 SE 6 9 29.59 1002 9 14 0.00 0.00
4:56 pm 16:56 Mostly Cloudy with Drizzle 67 19.6 59 15.2 76 76 SE 8 13 29.59 1002 10 16 0.00 0.00
5:56 pm 17:56 Mostly Cloudy 67 19.2 61 16 82 82 E 6 9 29.58 1002 10 16 0.00 0.00
6:56 pm 18:56 Cloudy 68 20.2 60 15.4 74 74 ESE 6 9 29.57 1001 10 16 0.00 0.00
7:56 pm 19:56 Cloudy 68 19.8 59 15.2 75 75 E 7 11 29.58 1002 10 16 0.00 0.00
8:56 pm 20:56 Cloudy 66 19.1 59 14.8 76 76 E 6 9 29.58 1002 10 16 0.00 0.00
9:56 pm 21:56 Cloudy 67 19.2 58 14.6 75 75 E 5 7 29.59 1002 10 16 0.00 0.00
10:56 pm 22:56 Cloudy 66 19.1 59 14.8 76 76 E 6 9 29.59 1002 10 16 0.00 0.00
11:56 pm 23:56 Mostly Cloudy 67 19.4 58 14.4 73 73 ESE 8 13 29.55 1001 10 16 0.00 0.00

Powered by AerisWeather